Погода в Хвалынске

Погода в Хвалынске : погода сейчас, прогноз погоды и архив. Всё, что Вы хотите узнать о погоде в Хвалынске!

Поиск расширенной информации на нашем сайте:

Другие новости

Новости СМИ2

Главная страница сайта

Новости сайта

03.07.2017

Напоминаем, что на нашем специализированном сайте Метеоцентр.Азия вы можете получить высокодетализированные автоматические прогнозы погоды по пунктам России, СНГ и мира в авиационном формате (включающие направление и скорость ветра, видимость, явления погоды, количество и форму облачности, нижнюю и верхнюю границу облачности).

Рекомендуем: Подшипники роликовые в кахастане: покупка роликовых подшипников podshipnik-rti.kz.

Погода в Хвалынске - сегодня

Время (UTC), дата Ветер
(°,м/с) 
Видим.   Явления Облачность Т
(°С)
Тd
(°С)
f(%) Тe
(°С)
Pmin
(гПа)
dP
(гПа)
Po
(мм)
O2
(г/м3)
Тmin Tmax R s Состояние
почвы
09 19.07.17 030 (СВ) 20000 м    3/3 1000 м 
[Sc diur, vesp]
+22.8 +14.7 60 +31  1016.3  -0.3  755  278           
12 19.07.17 030 (СВ) 20000 м    3/1 1000 м верхняя 
[Sc diur, vesp|Ci sp]
+23.9 +14.9 57 +32  1015.7  -0.6  754  276           
15 19.07.17 350 (С) 20000 м    ясно 
+22.5 +15.9 66 +33  1015.3  -0.4  754  277    +24.5       
18 19.07.17 310 (СЗ) 20000 м    ясно 
+20 +11.8 59 +24  1015.6  0.1  754  281           
21 19.07.17 300 (СЗ) 23000 м    6/0 средняя 
[Ac lent]
+19.2 +12.4 65 +25  1014.9  -0.7  753  281           
00 20.07.17 310 (СЗ) 20000 м  {ливн. осадки}  6/0 средняя 
[Ac cast]
+17.8 +11.5 67 +22  1015  0.1  753  283           
03 20.07.17 310 (СЗ) 20000 м  гроза без осадков  8/6 600 м кучево-дожд., средняя 
[Cb cap|Ac lent]
+18.9 +14.4 75 +28  1015.1  0.1  754  281  +17.2    0.0    сухая 
06 20.07.17 360 (С) 10 км  гроза без осадков{ливн. осадки}  9/4 600 м кучево-дожд., средняя 
[Cb cap|Ac lent]
+17.2 +12.9 76 +23  1015.1  754  283  +16.3         
09 20.07.17 350 (С) 20000 м  {гроза}  8/3 1000 м средняя, верхняя 
[Sc diur, vesp|Ac cuf|Cc]
+21.2 +16.8 76 +33  1014.4  -0.6  753  278           
12 20.07.17 340 (С) 20000 м  {гроза}  6/3 1000 м средняя, верхняя 
[Sc diur, vesp|Ac trans|Cc]
+23.1 +17.7 72 +37  1012.8  -1.5  752  275           
15 20.07.17 340 (С) 20000 м    4/1 1000 м средняя 
[Sc diur, vesp|Ac cuf]
+23.7 +16.4 64 +35  1012.1  -0.7  751  275    +24  10     
18 20.07.17 320 (СЗ) 20000 м    3/1 1000 м средняя 
[Sc diur, vesp|Ac cast]
+21.7 +15.9 70 +32  1012.3  0.2  752  277           
21 20.07.17 300 (СЗ) 22000 м    ясно 
+20.4 +17.7 84 +34  1012.3  752  278           
00 21.07.17 330 (СЗ) 20000 м  {ливн. осадки}  8/0 средняя 
[Ac lent]
+19.5 +18.1 92 +36  1011  -1.4  751  278           
03 21.07.17 330 (СЗ) 20000 м    8/4 1000 м средняя 
[Sc|Ac lent]
+19.8 +18.2 90 +36  1011.7  0.8  751  278  +19.5    0.0    влажная 
06 21.07.17 010 (С) 20000 м    10/0 средняя 
[Ac und]
+20.8 +18.6 87 +36  1012.4  0.7  752  277           
09 21.07.17 350 (С) 5{10}  20000 м    10/0 средняя 
[Ac und]
+22.2 +18.4 79 +37  1011.9  -0.5  751  276           
12 21.07.17 360 (С) 4{10}  20000 м    3/1 1000 м верхняя 
[Cu hum|Ci sp]
+24.6 +19 71 +41  1011  -0.8  751  273           
15 21.07.17 350 (С) 20000 м    4/3 1000 м верхняя 
[Sc diur, vesp|Ci sp]
+25.2 +17.6 63 +39  1010.6  -0.4  750  273    +25.6       
18 21.07.17 280 (З) 20000 м    3/0 средняя 
[Ac cuf]
+23 +16.4 66 +34  1011.5  0.8  751  276           
21 21.07.17 290 (З) 21000 м    ясно 
+20.9 +15 69 +30  1011.9  0.4  751  278           
00 22.07.17 280 (З) 20000 м    ясно 
+19.2 +12 63 +24  1012.2  0.2  751  281           
03 22.07.17 230 (ЮЗ) 20000 м    ясно 
+21 +13.7 63 +27  1013  0.8  752  279  +19        сухая 
06 22.07.17 290 (З) 20000 м    ясно 
+23.8 +12.9 50 +29  1013.4  0.5  752  276           
09 22.07.17 310 (СЗ) 20000 м    3/3 1000 м 
[Cu hum]
+26.4 +11.8 40 +30  1013.6  0.2  753  274           
Время (UTC), дата Ветер
(°,м/с) 
Видим.   Явления Облачность Т
(°С)
Тd
(°С)
f(%) Тe
(°С)
Pmin
(гПа)
dP
(гПа)
Po
(мм)
O2
(г/м3)
Тmin Tmax R s Состояние
почвы

Для получения пояснительной информации подведите курсор к названию столбца.

ПОГОДА в Хвалынске - архив

Всё, что Вы хотите узнать о погоде в Хвалынске - удобно и подробно!

Выберите нужную дату (начиная с 1 января 2015* года) и нажмите кнопку "Найти".
Будут отображены архивные сводки погоды по пункту Хвалынск, начиная с указанной даты.


Отображать данные в формате CSV (для использования в таблицах Excel)


Внимание! Наш архив погоды предназначен исключительно для личного некоммерческого использования в познавательных целях. Если Вам необходимы официальные справки о состоянии погоды (для производственных, юридических, коммерческих и т.п. целей), обращайтесь в органы Росгидромета.

*Примечание: данная дата относится к архиву по метеостанциям СССР (Россия, СНГ, Балтия).
Архив по метеостанциям Зарубежной Европы и Азии (кроме Китая) хранится 10 дней, по другим регионам земного шара (Китай, Африка, Америка, Австралия, Океания) - 1 день.

Хвалынск - район местоположения метеостанции


Название, широта, долгота, высота метеостанции:
Хвалынск 52.5°ш. 48.1°д. 88 м над ур. моря [Российская Федерация]

Дополнительная информация

В oтличие oт бoльшинства пoгoдных сайтoв мы публикуем пoдрoбную метеoинфoрмацию в детальнoм прoфессиoнальнoм фoрмате.

Характеристики температуры и влажнoсти вoздуха измеряются на высoте 2 м в тени вдали oт зданий и деревьев.
Скoрoсть ветра измеряется на высoте 10 м (на урoвне рoста челoвека скoрoсть ветра ниже в 1.5-2 раза). Если метеoстанция нахoдится в гoрoде или в лесу, тo скoрoсть ветра занижена на 2-4 м/с пo сравнению с oткрытым местoм. Скoрoсть ветра над акватoриями крупных рек и oзёр, а также на вершинах хoлмoв на 2-5 м/с выше, чем в oбычных услoвиях.
Атмoсфернoе давление в разных тoчках местнoсти мoжет значительнo oтличаться oт давления на метеoстанции, в зависимoсти oт услoвий рельефа (при пoдъёме на 10 м давление пoнижается примернo на 1 мм рт.ст.).